Weather History for Clinton-Sherman, OK

Change the Weather History Date:

Saturday, August 24, 2013

  Actual Average Record
Temperature  
Mean Temperature 85 °F -  
Max Temperature 98 °F 91 °F 109 °F (2011)
Min Temperature 73 °F 68 °F 66 °F (1997)
Cooling Degree Days 20    
Growing Degree Days 35 (Base 50)    
Moisture  
Dew Point 64 °F    
Average Humidity 53    
Maximum Humidity 76    
Minimum Humidity 28    
Precipitation  
Precipitation 0.00 in - - ()
Sea Level Pressure  
Sea Level Pressure 30.01 in    
Wind  
Wind Speed 11 mph (SSE)    
Max Wind Speed 18 mph    
Max Gust Speed 25 mph    
Visibility 10 miles    
Events      
Averages and records for this station are not official NWS values.
T = Trace of Precipitation, MM = Missing Value Source: NWS Daily Summary

Daily Weather History Graph

Daily Weather History Graph

Search for Another Location

Airport:

Trip Planner

Search our weather history database for the weather conditions in past years. The results will help you decide how hot, cold, wet, or windy it might be!

Date:

Astronomy

Aug. 24, 2013 Rise Set
Actual Time 7:03 AM CDT 8:14 PM CDT
Civil Twilight 6:37 AM CDT 8:40 PM CDT
Nautical Twilight 6:05 AM CDT 9:11 PM CDT
Astronomical Twilight 5:32 AM CDT 9:44 PM CDT
Moon 10:21 PM CDT (8/24) 10:53 AM CDT (8/24)
Length of Visible Light 14h 03m
Length of Day
13h 10m
Waning Gibbous, 84% of the Moon is Illuminated
Aug 24
Waning Gibbous
Aug 28
Last Quarter
Sep 5
New
Sep 12
First Quarter
Sep 19
Full

Hourly Weather History & Observations

Time (CDT) Temp. Heat Index Dew Point Humidity Pressure Visibility Wind Dir Wind Speed Gust Speed Precip Events Conditions
12:53 AM 79.0 °F - 66.9 °F 66% 29.98 in 10.0 mi SE 11.5 mph - N/A   Clear
1:53 AM 75.9 °F - 66.9 °F 74% 29.98 in 10.0 mi South 9.2 mph - N/A   Clear
2:53 AM 77.0 °F - 66.0 °F 69% 29.99 in 10.0 mi SSE 11.5 mph - N/A   Clear
3:53 AM 75.0 °F - 66.0 °F 73% 29.99 in 10.0 mi SSE 8.1 mph - N/A   Clear
4:53 AM 73.9 °F - 64.9 °F 73% 30.00 in 10.0 mi South 8.1 mph - N/A   Clear
5:53 AM 75.0 °F - 64.9 °F 71% 29.99 in 10.0 mi South 8.1 mph - N/A   Clear
6:53 AM 73.0 °F - 64.9 °F 76% 30.01 in 10.0 mi SSE 6.9 mph - N/A   Clear
7:53 AM 75.0 °F - 66.0 °F 73% 30.03 in 10.0 mi SSE 9.2 mph - N/A   Clear
8:53 AM 79.0 °F - 66.0 °F 64% 30.04 in 10.0 mi SSE 12.7 mph - N/A   Clear
9:53 AM 84.0 °F 85.8 °F 64.9 °F 53% 30.05 in 10.0 mi South 12.7 mph - N/A   Clear
10:53 AM 88.0 °F 89.6 °F 64.9 °F 46% 30.06 in 10.0 mi South 13.8 mph - N/A   Clear
11:53 AM 91.0 °F 92.6 °F 64.0 °F 41% 30.06 in 10.0 mi South 10.4 mph 23.0 mph N/A   Clear
12:53 PM 93.9 °F 94.8 °F 62.1 °F 35% 30.04 in 10.0 mi South 16.1 mph 25.3 mph N/A   Clear
1:53 PM 96.1 °F 96.4 °F 61.0 °F 31% 30.03 in 10.0 mi SSE 15.0 mph - N/A   Clear
2:53 PM 96.1 °F 96.4 °F 61.0 °F 31% 30.01 in 10.0 mi South 12.7 mph 17.3 mph 0.00 in   Scattered Clouds
3:53 PM 97.0 °F 96.5 °F 59.0 °F 28% 29.99 in 10.0 mi South 11.5 mph - N/A   Scattered Clouds
4:53 PM 97.0 °F 96.9 °F 60.1 °F 29% 29.98 in 10.0 mi SSE 12.7 mph - N/A   Partly Cloudy
5:53 PM 95.0 °F 94.8 °F 60.1 °F 31% 29.97 in 10.0 mi SE 10.4 mph - N/A   Clear
6:53 PM 93.0 °F 93.8 °F 62.1 °F 36% 29.97 in 10.0 mi SE 15.0 mph - N/A   Clear
7:53 PM 90.0 °F 91.3 °F 64.0 °F 42% 29.98 in 10.0 mi SE 18.4 mph 25.3 mph N/A   Partly Cloudy
8:53 PM 87.1 °F 88.3 °F 64.0 °F 46% 30.00 in 10.0 mi SE 12.7 mph - N/A   Clear
9:53 PM 84.0 °F 85.8 °F 64.9 °F 53% 30.03 in 10.0 mi SE 11.5 mph - N/A   Clear
10:53 PM 81.0 °F 83.0 °F 66.0 °F 60% 30.05 in 10.0 mi ESE 8.1 mph - N/A   Clear
11:53 PM 81.0 °F 83.0 °F 66.0 °F 60% 30.05 in 10.0 mi ESE 12.7 mph - N/A   Clear